Home   Weather   Compton   Past weeks

Flag for USA Past Weather in Compton, California, USA — Yesterday and Last 2 Weeks

Now
66 °F

Clear.


Feels Like: 66 °F
Forecast: 65 / 76 °F
Wind: No wind

Location: Hawthorne Municipal Airport

Current Time: Aug 17, 2017 at 6:48:13 am

Latest Report: Aug 17, 2017 at 5:53 am


Visibility: 10 mi

Pressure: 29.98 "Hg

Humidity: 84%

Dew Point: 61 °F

Location of ComptonLocation

Past Weather in Compton — Graph

°F

Compton Temperature Yesterday

Maximum temperature yesterday: 75 °F (at 11:53 am)
Minimum temperature yesterday: 66 °F (at 11:53 pm)
Average temperature yesterday: 69 °F

High & Low Weather Summary for the Past Weeks

 TemperatureHumidityPressure
High87 °F (Aug 2, 1:53 pm)90% (Aug 9, 4:53 am)29.98 "Hg (Aug 9, 4:53 am)
Low66 °F (Aug 12, 5:53 am)49% (Aug 3, 12:53 pm)29.81 "Hg (Aug 11, 5:53 pm)
Average72 °F76%29.91 "Hg
* Reported Aug 2 4:53 am — Aug 17 4:53 am, Compton. Weather by CustomWeather, © 2017

Note: Actual official high and low records may vary slightly from our data, if they occured in-between our weather recording intervals... More about our weather records

Advertising

Compton Weather History for the Previous 24 Hours

Scroll right to see more
 ConditionsComfort  
Time TempWeatherWind HumidityBarometerVisibility
4:53 am
Thu, Aug 17
66 °FClear.No wind84%29.97 "Hg10 mi
3:53 am66 °FClear.No wind84%29.96 "Hg10 mi
2:53 am66 °FClear.No wind81%29.96 "Hg10 mi
1:53 am66 °FClear.3 mph81%29.96 "Hg10 mi
12:53 am66 °FClear.5 mph81%29.97 "Hg10 mi
11:53 pm
Wed, Aug 16
66 °FClear.6 mph84%29.96 "Hg10 mi
10:53 pm67 °FClear.6 mph81%29.96 "Hg10 mi
9:53 pm67 °FClear.9 mph81%29.96 "Hg10 mi
8:53 pm68 °FClear.6 mph78%29.95 "Hg10 mi
7:53 pm68 °FClear.8 mph82%29.93 "Hg10 mi
6:53 pm69 °FScattered clouds.9 mph76%29.92 "Hg10 mi
5:53 pm71 °FSunny.10 mph71%29.93 "Hg10 mi
4:53 pm72 °FSunny.14 mph68%29.94 "Hg10 mi
3:53 pm72 °FSunny.13 mph68%29.94 "Hg10 mi
2:53 pm73 °FPassing clouds.10 mph66%29.95 "Hg10 mi
1:53 pm74 °FSunny.10 mph64%29.97 "Hg10 mi
12:53 pm73 °FPassing clouds.10 mph66%29.97 "Hg10 mi
11:53 am75 °FPassing clouds.12 mph62%29.98 "Hg10 mi
10:53 am73 °FScattered clouds.No wind55%29.98 "Hg10 mi
9:53 am71 °FScattered clouds.3 mph59%29.98 "Hg10 mi
8:53 am69 °FOvercast.6 mph68%29.98 "Hg10 mi
7:53 am67 °FOvercast.5 mph71%29.98 "Hg10 mi
6:53 am67 °FOvercast.6 mph71%29.96 "Hg10 mi
6:32 am67 °FOvercast.6 mph71%29.96 "Hg10 mi
Weather by CustomWeather, © 2017

See weather overviewHow to use our weather pages